User: anonymous   Login
Location: ?????????
(38.0736°N, 23.2119°E)
Time: 18:24:40
(UTC+00:00)
Language:

Okean 1 Rocket - Orbit

View from above orbital plane
View from above orbital plane
View from above satellite
View from above satellite

Ground track
Ground track

The orbit data is extracted from the following two-line orbital elements,

1 19275U 88056B   24165.89519293  .00000832  00000-0  96973-4 0  9996
2 19275  82.5155  99.7773 0021176  74.9198 285.4358 14.83901207920639
Epoch (UTC): 13 June 2024 21:29:04
Eccentricity: 0.0021176
inclination: 82.5155°
perigee height: 602 km
apogee height: 632 km
right ascension of ascending node: 99.7773°
argument of perigee: 74.9198°
revolutions per day: 14.83901207
mean anomaly at epoch: 285.4358°
orbit number at epoch: 92063

The dashed part of the orbit path shows where the satellite is in the earth's shadow,  

DLR